COSMOS 1275 DEB, 42182

Orbit data source: Space-Track

COSMOS 1275 DEB, 42182 is space debris in LEO originally from a launch on Thu, 04 Jun 1981 UTC launched from the Plesetsk Missile And Space Complex (PKMTR). Debris objects in space refer to the collection of defunct objects orbiting the Earth. Examples of debris include non-operational satellites, rocket bodies, and fragments generated from explosions, collisions, or faulty payload assembly.

Loading next visibility...
Identifier
42182, 1981-053SW
Orbit
LEO
Country
Flag of CISCIS
Related business
Manufacturer
Unknown
Mission
Spacecraft
Bus & Motor
Unknown
Mass
Unknown
Launch date (UTC)
1981-06-04 (44 years ago)
Launch vehicle
Unknown
Launch site
Plesetsk Missile And Space Complex (PKMTR)
Object type
Payload
Rocket body
Debris
Shape & HBR
Unknown
Radar Cross Section
Small (<0.1 m²)

Expand to show TLE details & history
Last TLE update: 4 days ago

TLE from 4 days ago
0 COSMOS 1275 DEB
1 42182U 81053SW  25239.56462118  .00000439  00000-0  51424-3 0  9993
2 42182  82.9551 170.7098 0133428 328.0525 208.3535 13.62704098571242
Epoch: 2025-08-27T13:33Z
TLE epoch observation values (Epoch: 2025-08-27T13:33:03.269Z)
Latitude
4.18846°
Longitude
170.89012°
Altitude
1,115.566 km
Speed
7.252 km/s
True Right ascension
23h 20m 46s
True Declination
4° 09' 53"
Sunlit
Object was in full shadow at epoch
Visualization orbit readout
Latitude
Unknown
Longitude
Unknown
Altitude
Unknown
Speed
Unknown
Apparent Right ascension
Unknown
Apparent Declination
Unknown
Sunlit
N/A
Visualization observer readout
Local Sidereal Time
11:03:39
Azimuth
Unknown
Elevation
Unknown
Doppler factor
Unknown
Orbital elements
Apogee altitude
1,121.798 km
Perigee altitude
924.293 km
Semi-major axis
7,401.183 km
Eccentricity
0.01334
Inclination
82.9551°
RAAN
170.7098°
Arg. of periapsis
328.0525°
True anomaly
207.6379°
Mean anomaly
208.3535°
Eccentric anomaly
207.99466°
Mean motion
3.40872 °/min
Orbital period
105.61 mins
BSTAR
0.00051424
Loading maneuver chart data...
Computing Atmospheric mass density...
Loading historical data...
Loading historical data...
Loading historical data...
Loading historical data...
Loading historical data...
Loading historical data...
Loading historical data...

Documentation

Showing up to 5 results
|